Location: Izdebno
(52.6670°N, 16.2170°E)
Time: 06:31:12
(UTC+02:00)

Vanguard 1 - Pass Details

Date: 03 March 2024
Orbit: 653 x 3825 km, 34.2° (Epoch: 22 April)

Event Time Altitude Azimuth Distance (km) Brightness Sun altitude
Rises 00:47:39 0° 273° (W) 6,864 14.3 -43.3°
Reaches altitude 10° 00:54:01 10° 258° (WSW) 6,303 13.9 -43.1°
Enters shadow 00:54:20 10° 257° (WSW) 6,283 13.9 -43.0°
